Notices

What's New in latest Release from April 7th, 2021:

- Updated Glossary, including Speed of Maximum Gust, and Total Hourly Precipitation

- Updated national and regional climate services offices contacts and prices information

- Addition of station inventory lists for 1981-2010, 1971-2000, and 1961-1990 Normals.

If you haven't already, please take our survey and provide feedback about our website: https://eccc.sondage-survey.ca/f/LanguageSelection.aspx?s=442ca660-fcf1-47c0-95a9-59707d6fd709

Hourly Data Report for December 09, 2020

SHEARWATER RCS
NOVA SCOTIA
Current Station Operator: ECCC - MSC

44°37'47.000" N
63°30'48.000" W
24.00 m
8205092
71264
AAW

Download Data

Hourly Data (December 2020)
Hourly Data Report for December 9, 2020
TIME
LST
Temp Definition
°C
Dew Point Definition
°C
Rel Hum Definition
%
Precip. Amount Definition
mm

Wind Dir Definition
10's deg

Wind Spd Definition
km/h
Visibility Definition
km
Stn Press Definition
kPa
Hmdx Definition


Wind Chill Definition


Weather Definition


00:00 0.6 -1.4 87 0.0 31 15   99.39     LegendNANA
01:00 0.4 -1.7 86 0.0 32 18   99.44     LegendNANA
02:00 0.3 -2.3 83 0.0 31 19   99.55     LegendNANA
03:00 0.2 -2.3 83 0.0 32 16   99.63     LegendNANA
04:00 -0.3 -2.2 87 0.0 31 12   99.71   -4 LegendNANA
05:00 -0.2 -2.2 86 0.0 31 13   99.78   -4 LegendNANA
06:00 0.0 -2.2 85 0.0 29 13   99.84   -4 LegendNANA
07:00 -0.1 -1.8 89 0.0 29 9   99.93   -3 LegendNANA
08:00 0.1 -2.1 86 0.0 30 11   99.99     LegendNANA
09:00 0.8 -2.2 80 0.0 28 10   100.04     LegendNANA
10:00 1.4 -2.0 78 0.0 26 10   100.11     LegendNANA
11:00 1.8 -2.3 74 0.0 26 10   100.14     LegendNANA
12:00 2.2 -3.5 66 0.0 27 13   100.11     LegendNANA
13:00 2.9 -2.4 68 0.0 25 13   100.06     LegendNANA
14:00 2.6 -2.7 68 0.0 27 11   100.08     LegendNANA
15:00 2.7 -2.5 69 0.0 25 8   100.12     LegendNANA
16:00 2.7 -2.9 67 0.0 26 10   100.15     LegendNANA
17:00 2.4 -2.4 71 0.0 28 8   100.20     LegendNANA
18:00 2.0 -2.8 71 0.0 29 8   100.25     LegendNANA
19:00 1.7 -2.8 72 0.0 26 12   100.33     LegendNANA
20:00 1.4 -3.6 69 0.0 30 7   100.36     LegendNANA
21:00 1.3 -2.9 74 0.0 19 2   100.35     LegendNANA
22:00 0.4 -2.8 79 0.0 6 6   100.34     LegendNANA
23:00 0.1 -3.3 78 0.0 8 6   100.35     LegendNANA

Notes on Data Quality.

Legend

  • E = Estimated
  • M = Missing
  • NA = Not Available*
  • [empty] = Indicates an unobserved value
Date modified: